Flag for Poland Weather past 2 weeks in Włocławek, Poland

Now
56 °F

Cool.


Feels Like: 56 °F
Forecast: 46 / 62 °F
Wind: 1 mph from Northeast

Location: Plock

Current Time: Oct 1, 2014 at 3:26:37 AM

Latest Report: Oct 1, 2014 at 2:00 AM


Visibility: 1 mi

Pressure: 30.29 "Hg

Humidity: 95%

Dew point: 55 °F

Location of WłocławekLocation

Historic Weather in Włocławek — Graph

°F

Włocławek temperature yesterday

Maximum temperature yesterday: 63 °F (at 3:00 PM)
Minimum temperature yesterday: 49 °F (at 4:00 AM)
Average temperature yesterday: 56 °F

Past Weeks' High & Low Weather Summary

 TemperatureHumidityPressure
High72 °F (Sep 18, 3:00 PM)99% (Sep 21, 7:00 AM)30.36 "Hg (Sep 21, 7:00 AM)
Low35 °F (Sep 24, 7:00 AM)37% (Sep 16, 4:00 PM)29.66 "Hg (Sep 22, 5:00 AM)
Average56 °F79%30.06 "Hg
* Reported Sep 16 1:00 AM — Oct 1 1:00 AM, Włocławek, Weather by CustomWeather, © 2014

Note: Actual official high and low records may vary slightly from our data, if they occured in-between our weather recording intervals... More about our weather records

Advertising

Włocławek weather history for previous 24 hours

 ConditionsComfort  
Time TempWeatherWind HumidityBarometerVisibility
1:00 AM
Oct 1
57 °FFog.1 mph93%30.28 "Hg2 mi
12:00 AM57 °FFog.1 mph94%30.28 "Hg2 mi
11:00 PM
Sep 30
57 °FOvercast.1 mph95%30.27 "Hg1 mi
10:00 PM57 °FSprinkles. Overcast.1 mph95%30.27 "Hg2 mi
9:00 PM57 °FOvercast.1 mph95%30.27 "Hg1 mi
8:00 PM57 °FSprinkles. Overcast.1 mph93%30.26 "Hg2 mi
7:00 PM59 °FFog.2 mph89%30.25 "Hg2 mi
6:00 PM60 °FSprinkles. Overcast.2 mph83%30.24 "Hg3 mi
5:00 PM61 °FFog.1 mph80%30.24 "Hg4 mi
4:00 PM63 °FOvercast.1 mph81%30.24 "Hg5 mi
3:00 PM63 °FFog.2 mph79%30.23 "Hg5 mi
2:00 PM62 °FOvercast.1 mph78%30.23 "Hg6 mi
1:00 PM63 °FOvercast.1 mph75%30.22 "Hg6 mi
12:00 PM63 °FFog.1 mph76%30.22 "Hg6 mi
11:00 AM62 °FOvercast.2 mph81%30.22 "Hg6 mi
10:00 AM59 °FFog.1 mph91%30.22 "Hg3 mi
9:00 AM56 °FOvercast.1 mph97%30.22 "Hg2 mi
8:00 AM52 °FSprinkles. Overcast.No wind98%30.22 "Hg1 mi
7:00 AM51 °FFog.1 mph98%30.21 "Hg1 mi
6:00 AM50 °FFog.No wind98%30.20 "Hg1 mi
5:00 AM50 °FFog.1 mph98%30.20 "Hg1 mi
4:00 AM49 °FFog.1 mph97%30.20 "Hg2 mi
3:00 AM49 °FFog.No wind97%30.20 "Hg2 mi
Weather by CustomWeather, © 2014

See weather overviewHow to use our weather pages